Location: Malanoce
(44.2500°N, 7.4667°E)
Time: 21:26:54
(UTC+00:00)

Spot 4 Rocket - Pass Details

Date: 17 November 2025
Orbit: 769 x 773 km, 98.8° (Epoch: 11 December)

Event Time Altitude Azimuth Distance (km) Brightness Sun altitude
Rises 17:24:01 0° 150° (SSE) 3,228 7.1 -14.8°
Reaches altitude 10° 17:26:21 10° 146° (SE) 2,305 6.3 -15.2°
Maximum altitude 17:31:16 53° 70° (ENE) 946 4.1 -16.1°
Drops below altitude 10° 17:36:14 10° 355° (N) 2,321 6.4 -16.9°
Sets 17:38:35 0° 351° (N) 3,252 7.2 -17.3°
